DateTimeUTC,F1_A11,F1_S11,BsB_S11,BsG_S11,BsR_S11,BbsB_S11,BbsG_S11,BbsR_S11,BaB_A11,BaG_A11,BaR_A11,Tu_S11,T_S11,Uu_S11,U_S11,P_S11,T1_A11
2021-08-03T09:00:00Z,00000200,20000000,,,,,,,0000.25,0000.17,0000.21,18.0,24.8,02.9,01.9,0672.0,30.9
2021-08-03T09:01:00Z,00000200,20000000,,,,,,,0000.07,-000.13,0000.05,18.0,24.8,02.9,01.9,0672.0,30.9
2021-08-03T09:02:00Z,00000200,20000000,,,,,,,0000.13,-000.09,0000.07,18.0,24.8,02.9,01.9,0672.0,31.0
2021-08-03T09:03:00Z,00000200,60000000,,,,,,,0001.09,0001.73,0000.58,18.0,24.8,02.9,01.9,0672.0,31.0
2021-08-03T09:04:00Z,00000200,40000000,0011.28,0008.43,0005.47,0001.64,0000.83,0001.30,0002.43,0001.83,0001.90,18.1,24.6,02.8,01.9,0672.9,30.9
2021-08-03T09:05:00Z,00000200,00000000,0010.26,0007.81,0005.66,0001.65,0000.79,0000.99,0002.35,0002.13,0001.49,18.2,24.6,02.8,01.9,0673.0,31.0
2021-08-03T09:06:00Z,00000200,00000000,0012.51,0008.27,0005.04,0001.51,0001.13,0000.62,0002.43,0002.22,0001.95,18.2,24.6,02.9,02.0,0673.0,30.9
2021-08-03T09:07:00Z,00000200,00000000,0010.96,0008.10,0005.19,0000.83,0001.09,0000.75,0002.15,0001.91,0001.45,18.2,24.6,02.9,02.0,0673.0,31.0
2021-08-03T09:08:00Z,00000200,00000000,0011.55,0008.55,0005.01,0001.21,0001.23,0000.53,0001.90,0001.92,0001.05,18.3,24.6,02.9,02.0,0673.0,31.0
2021-08-03T09:09:00Z,00000200,00000000,0011.02,0008.24,0005.27,0000.59,0000.72,0000.70,0002.52,0002.23,0002.07,18.3,24.6,02.9,02.0,0673.0,31.0
2021-08-03T09:10:00Z,00000200,00000000,0011.18,0008.45,0005.00,0001.36,0001.14,0000.92,0002.44,0002.09,0001.53,18.3,24.5,02.9,02.0,0673.0,31.0
2021-08-03T09:11:00Z,00000200,00000000,0011.14,0007.98,0005.06,0001.62,0001.14,0000.91,0002.17,0002.20,0001.29,18.3,24.6,02.9,02.0,0673.0,31.0
2021-08-03T09:12:00Z,00000200,00000000,0011.05,0008.54,0005.33,0000.91,0001.07,0001.02,0002.28,0002.03,0002.17,18.3,24.6,02.9,02.0,0673.0,31.0
2021-08-03T09:13:00Z,00000200,00000000,0011.53,0008.20,0005.39,0001.15,0000.91,0000.93,0002.43,0002.12,0001.51,18.3,24.6,02.9,02.0,0673.0,31.0
2021-08-03T09:14:00Z,00000200,00000000,0012.24,0009.36,0005.70,0001.47,0000.77,0001.01,0002.60,0002.37,0001.92,18.3,24.6,02.8,01.9,0673.0,31.0
2021-08-03T09:15:00Z,00000200,00000000,0012.24,0009.29,0005.99,0001.41,0001.11,0000.76,0002.31,0002.06,0001.55,18.3,24.6,02.9,02.0,0673.0,31.0
2021-08-03T09:16:00Z,00000200,00000000,0012.23,0009.07,0005.84,0001.45,0000.90,0000.73,0002.63,0002.14,0001.58,18.3,24.6,02.9,02.0,0673.0,31.0
2021-08-03T09:17:00Z,00000200,00000000,0011.85,0008.50,0005.42,0002.20,0001.09,0001.09,0002.16,0002.39,0001.61,18.3,24.6,02.8,01.9,0673.0,31.0
2021-08-03T09:18:00Z,00000200,00000000,0011.19,0008.50,0005.31,0001.68,0000.92,0000.53,0002.79,0002.13,0001.76,18.3,24.6,02.8,01.9,0673.0,31.0
2021-08-03T09:19:00Z,00000200,00000000,0011.59,0008.50,0005.22,0000.93,0001.15,0000.74,0001.85,0001.60,0001.70,18.3,24.6,02.8,01.9,0673.0,30.9
2021-08-03T09:20:00Z,00000200,00000000,0011.86,0008.60,0005.00,0001.06,0001.06,0000.91,0002.61,0002.56,0001.20,18.3,24.5,02.8,01.9,0673.0,31.0
2021-08-03T09:21:00Z,00000200,00000000,0010.48,0008.34,0005.46,0000.98,0001.23,0000.58,0002.12,0002.05,0001.98,18.4,24.6,02.8,01.9,0673.0,30.9
2021-08-03T09:22:00Z,00000200,00000000,0012.35,0008.45,0005.12,0002.11,0001.26,0000.87,0002.43,0002.34,0001.51,18.3,24.6,02.9,02.0,0673.0,30.9
2021-08-03T09:23:00Z,00000200,00000000,0011.55,0007.93,0005.32,0001.69,0000.61,0000.82,0002.70,0002.17,0001.74,18.3,24.6,02.7,01.9,0673.0,30.9
2021-08-03T09:24:00Z,00000200,00000000,0011.57,0008.56,0005.53,0001.12,0001.02,0001.08,0002.30,0002.28,0001.80,18.4,24.5,02.9,02.0,0673.0,30.9
2021-08-03T09:25:00Z,00000200,00000000,0012.65,0008.62,0005.14,0001.74,0001.32,0001.05,0002.68,0002.37,0001.81,18.4,24.6,02.9,02.0,0673.0,30.9
2021-08-03T09:26:00Z,00000200,00000000,0011.57,0008.86,0005.34,0001.49,0001.05,0000.88,0001.89,0001.61,0001.39,18.4,24.6,02.9,02.0,0673.0,30.9
2021-08-03T09:27:00Z,00000200,00000000,0011.93,0009.03,0005.48,0001.43,0001.29,0001.19,0002.50,0002.46,0001.72,18.4,24.6,02.8,01.9,0672.9,31.0
2021-08-03T09:28:00Z,00000200,00000000,0011.52,0009.02,0005.74,0001.27,0000.75,0000.89,0002.54,0002.24,0001.71,18.4,24.6,02.9,02.0,0672.9,30.9
2021-08-03T09:29:00Z,00000200,00000000,0012.34,0008.85,0005.23,0001.82,0001.19,0000.94,0002.58,0002.21,0001.92,18.4,24.6,02.8,01.9,0672.9,31.0
2021-08-03T09:30:00Z,00000200,00000000,0012.72,0008.79,0005.49,0001.33,0001.07,0001.08,0002.11,0002.34,0001.62,18.4,24.6,02.8,01.9,0672.9,31.0
2021-08-03T09:31:00Z,00000200,00000000,0012.49,0009.38,0005.52,0001.63,0000.97,0000.75,0003.04,0002.32,0002.16,18.4,24.6,02.9,02.0,0672.9,31.0
2021-08-03T09:32:00Z,00000200,00000000,0012.01,0009.29,0005.86,0001.64,0001.00,0001.00,0002.55,0002.38,0001.65,18.4,24.6,03.0,02.0,0672.9,31.0
2021-08-03T09:33:00Z,00000200,00000000,0012.16,0009.73,0005.93,0001.10,0001.18,0000.62,0002.38,0002.35,0001.85,18.4,24.6,03.0,02.1,0672.9,31.0
2021-08-03T09:34:00Z,00000200,00000000,0012.23,0008.70,0005.93,0001.46,0001.02,0000.93,0002.37,0001.85,0001.41,18.5,24.6,02.9,02.0,0672.9,31.0
2021-08-03T09:35:00Z,00000200,00000000,0011.67,0009.19,0005.63,0001.25,0001.03,0000.95,0002.37,0002.39,0001.73,18.5,24.6,02.8,01.9,0672.9,31.0
2021-08-03T09:36:00Z,00000200,00000000,0012.59,0009.10,0005.93,0001.33,0001.02,0001.15,0002.47,0002.31,0001.71,18.5,24.6,02.9,02.0,0672.9,31.0
2021-08-03T09:37:00Z,00000200,00000000,0012.33,0008.95,0005.89,0001.82,0001.03,0001.14,0002.73,0002.52,0001.59,18.5,24.6,03.0,02.1,0672.9,31.0
2021-08-03T09:38:00Z,00000200,00000000,0011.99,0009.19,0005.55,0000.86,0001.11,0000.59,0002.36,0001.90,0001.77,18.5,24.6,02.9,02.0,0672.9,31.0
2021-08-03T09:39:00Z,00000200,00000000,0012.61,0008.80,0005.35,0001.84,0001.11,0001.05,0002.46,0002.01,0001.62,18.5,24.6,02.9,02.0,0672.9,31.0
2021-08-03T09:40:00Z,00000200,00000000,0012.95,0009.16,0005.90,0001.37,0001.30,0000.75,0002.14,0002.24,0001.63,18.5,24.6,02.9,02.0,0672.9,31.0
2021-08-03T09:41:00Z,00000200,00000000,0011.69,0009.00,0005.50,0001.85,0001.02,0000.88,0002.55,0002.52,0001.90,18.5,24.6,02.8,01.9,0672.9,31.0
2021-08-03T09:42:00Z,00000200,00000000,0012.10,0009.32,0006.03,0001.35,0000.97,0000.79,0002.83,0002.40,0002.04,18.5,24.6,03.0,02.1,0672.9,31.0
2021-08-03T09:43:00Z,00000200,00000000,0011.87,0008.86,0005.95,0001.45,0001.13,0001.06,0002.54,0002.25,0001.82,18.5,24.6,03.0,02.1,0672.9,31.0
2021-08-03T09:44:00Z,00000200,00000000,0012.11,0009.25,0005.46,0001.27,0000.90,0000.81,0002.89,0002.43,0002.05,18.5,24.6,03.2,02.2,0672.9,31.0
2021-08-03T09:45:00Z,00000200,00000000,0012.28,0009.06,0005.93,0001.35,0000.99,0001.02,0002.27,0002.65,0001.77,18.5,24.6,03.2,02.2,0672.9,31.0
2021-08-03T09:46:00Z,00000200,00000000,0012.75,0008.59,0005.83,0001.46,0000.98,0000.96,0002.65,0002.23,0001.94,18.5,24.6,03.4,02.3,0672.9,31.0
2021-08-03T09:47:00Z,00000200,00000000,0011.99,0009.06,0005.42,0001.41,0001.19,0001.16,0002.55,0002.60,0001.71,18.5,24.6,03.5,02.4,0672.9,31.0
2021-08-03T09:48:00Z,00000200,00000000,0012.40,0008.78,0005.56,0001.29,0001.09,0000.60,0002.65,0002.19,0001.94,18.5,24.6,03.4,02.3,0672.9,31.0
2021-08-03T09:49:00Z,00000200,00000000,0011.35,0009.05,0005.69,0001.75,0000.91,0000.97,0002.10,0001.99,0001.14,18.5,24.6,03.4,02.4,0672.9,31.0
2021-08-03T09:50:00Z,00000200,00000000,0012.86,0009.15,0005.56,0001.08,0001.11,0000.90,0002.14,0001.88,0001.42,18.6,24.6,03.5,02.4,0672.9,31.0
2021-08-03T09:51:00Z,00000200,00000000,0013.10,0009.44,0005.94,0001.83,0001.12,0000.56,0001.85,0001.62,0001.26,18.6,24.6,03.1,02.2,0672.9,31.0
2021-08-03T09:52:00Z,00000200,00000000,0012.18,0008.95,0006.01,0001.83,0000.75,0001.12,0002.56,0002.18,0001.70,18.6,24.6,02.9,02.0,0672.9,31.0
2021-08-03T09:53:00Z,00000200,00000000,0012.69,0009.38,0006.12,0001.23,0001.09,0000.77,0002.25,0002.46,0001.66,18.6,24.7,02.8,01.9,0672.9,31.0
2021-08-03T09:54:00Z,00000200,00000000,0012.96,0009.20,0005.61,0000.80,0001.25,0000.91,0003.08,0001.90,0002.19,18.6,24.7,03.0,02.1,0672.9,31.0
2021-08-03T09:55:00Z,00000200,00000000,0013.09,0009.54,0006.12,0001.56,0000.64,0000.96,0002.69,0003.15,0001.99,18.6,24.7,02.9,02.0,0672.9,31.0
2021-08-03T09:56:00Z,00000200,00000000,0012.96,0009.23,0006.41,0001.61,0001.00,0000.90,0002.39,0001.98,0001.47,18.6,24.7,03.0,02.1,0672.9,31.0
2021-08-03T09:57:00Z,00000200,40000000,,,,,,,0000.84,0000.70,0000.34,18.7,24.7,02.5,01.7,0672.6,31.0
2021-08-03T09:58:00Z,00000200,60000000,,,,,,,-000.41,-000.14,-000.08,18.5,24.8,02.8,01.9,0671.9,31.0
2021-08-03T09:59:00Z,00000200,20000000,,,,,,,0000.24,-000.11,0000.11,18.5,24.9,02.8,01.9,0671.9,31.0
